When you browse on this site, cookies collect data to enhance your experience and personalize the content and advertising you see.
Visit our Privacy Policy to learn more. By continuing to use the site, you agree to this use of cookies and data.
  • Em Portugal
  • Lista de países
  • Para 7 dias
  • Temperatura da água
  • Mapas de satélite
  • Mapa do tempo
  • Widgets de tempo
  • user-avatar
    Iniciar Sessão

    Previsão horária em Silistra

    Hoje, 19 Fevereiro, Terça-feira

    Tempo Temperatura Precipitação Vento Pressão Humidade
    00:00 +7°C° 0 mm 2 m/s 763 mmHg 70%
    01:00 +7°C° 0 mm 2 m/s 763 mmHg 72%
    02:00 +6°C° 0 mm 2 m/s 763 mmHg 74%
    03:00 +6°C° 0 mm 2 m/s 763 mmHg 76%
    04:00 +5°C° 0 mm 2 m/s 763 mmHg 78%
    05:00 +5°C° 0 mm 2 m/s 763 mmHg 80%
    06:00 +5°C° 0 mm 2 m/s 763 mmHg 81%
    07:00 +5°C° 0 mm 2 m/s 763 mmHg 82%
    08:00 +5°C° 0 mm 2 m/s 763 mmHg 84%
    09:00 +7°C° 0 mm 2 m/s 763 mmHg 76%
    10:00 +9°C° 0 mm 3 m/s 763 mmHg 68%
    11:00 +11°C° 0 mm 3 m/s 763 mmHg 61%
    12:00 +12°C° 0 mm 3 m/s 762 mmHg 56%
    13:00 +13°C° 0 mm 3 m/s 762 mmHg 52%
    14:00 +14°C° 0 mm 3 m/s 761 mmHg 47%
    15:00 +14°C° 0 mm 3 m/s 761 mmHg 50%
    16:00 +14°C° 0 mm 3 m/s 761 mmHg 52%
    17:00 +14°C° 0 mm 2 m/s 761 mmHg 55%
    18:00 +12°C° 0 mm 3 m/s 761 mmHg 63%
    19:00 +10°C° 0 mm 4 m/s 761 mmHg 70%
    20:00 +8°C° 0 mm 4 m/s 761 mmHg 78%
    21:00 +8°C° 0 mm 4 m/s 760 mmHg 80%
    22:00 +7°C° 0 mm 4 m/s 760 mmHg 82%
    23:00 +7°C° 0 mm 4 m/s 760 mmHg 84%

    Amanhã, 20 Fevereiro, Quarta-feira

    Tempo Temperatura Precipitação Vento Pressão Humidade
    00:00 +6°C° 0 mm 4 m/s 760 mmHg 85%
    01:00 +7°C° 0 mm 3 m/s 760 mmHg 86%
    02:00 +7°C° 0 mm 3 m/s 760 mmHg 87%
    03:00 +7°C° 0 mm 3 m/s 759 mmHg 85%
    04:00 +5°C° 0 mm 3 m/s 759 mmHg 84%
    05:00 +5°C° 0 mm 3 m/s 758 mmHg 83%
    06:00 +5°C° 0 mm 3 m/s 758 mmHg 80%
    07:00 +5°C° 0 mm 3 m/s 758 mmHg 78%
    08:00 +5°C° 0 mm 3 m/s 758 mmHg 76%
    09:00 +7°C° 0 mm 4 m/s 758 mmHg 69%
    10:00 +9°C° 0 mm 5 m/s 758 mmHg 61%
    11:00 +12°C° 0 mm 5 m/s 758 mmHg 54%
    12:00 +13°C° 0 mm 6 m/s 758 mmHg 51%
    13:00 +13°C° 0 mm 6 m/s 758 mmHg 49%
    14:00 +14°C° 0 mm 6 m/s 757 mmHg 46%
    15:00 +14°C° 0 mm 5 m/s 757 mmHg 48%
    16:00 +13°C° 0 mm 4 m/s 757 mmHg 49%
    17:00 +13°C° 0 mm 3 m/s 757 mmHg 51%
    18:00 +12°C° 0 mm 3 m/s 758 mmHg 55%
    19:00 +11°C° 0 mm 3 m/s 758 mmHg 59%
    20:00 +10°C° 0 mm 3 m/s 759 mmHg 63%
    21:00 +9°C° 0 mm 3 m/s 759 mmHg 62%
    22:00 +9°C° 0 mm 3 m/s 760 mmHg 61%
    23:00 +9°C° 0 mm 3 m/s 760 mmHg 61%

    Depois de amanhã, 21 Fevereiro, Quinta-feira

    Tempo Temperatura Precipitação Vento Pressão Humidade
    00:00 +8°C° 0 mm 3 m/s 761 mmHg 63%
    01:00 +8°C° 0 mm 3 m/s 761 mmHg 65%
    02:00 +8°C° 0 mm 2 m/s 761 mmHg 67%
    03:00 +7°C° 0 mm 2 m/s 761 mmHg 69%
    04:00 +7°C° 0 mm 2 m/s 762 mmHg 72%
    05:00 +7°C° 0 mm 1 m/s 762 mmHg 74%
    06:00 +7°C° 0 mm 1 m/s 762 mmHg 73%
    07:00 +8°C° 0 mm 1 m/s 763 mmHg 71%
    08:00 +7°C° 0 mm 0 m/s 763 mmHg 70%
    09:00 +9°C° 0 mm 1 m/s 763 mmHg 63%
    10:00 +10°C° 0 mm 1 m/s 763 mmHg 57%
    11:00 +10°C° 0 mm 2 m/s 764 mmHg 50%
    12:00 +12°C° 0 mm 2 m/s 763 mmHg 48%
    13:00 +12°C° 0 mm 3 m/s 763 mmHg 46%
    14:00 +13°C° 0 mm 3 m/s 763 mmHg 44%
    15:00 +12°C° 0 mm 3 m/s 762 mmHg 45%
    16:00 +13°C° 0 mm 2 m/s 762 mmHg 46%
    17:00 +13°C° 0 mm 2 m/s 762 mmHg 47%
    18:00 +12°C° 0 mm 2 m/s 762 mmHg 50%
    19:00 +10°C° 0 mm 2 m/s 762 mmHg 53%
    20:00 +9°C° 0 mm 2 m/s 762 mmHg 56%
    21:00 +9°C° 0 mm 2 m/s 762 mmHg 58%
    22:00 +8°C° 0 mm 2 m/s 762 mmHg 59%
    23:00 +8°C° 0 mm 2 m/s 762 mmHg 61%

    22 Fevereiro, Sexta-feira

    Tempo Temperatura Precipitação Vento Pressão Humidade
    00:00 +7°C° 0 mm 2 m/s 762 mmHg 63%
    01:00 +7°C° 0 mm 3 m/s 761 mmHg 66%
    02:00 +5°C° 0 mm 3 m/s 761 mmHg 68%
    03:00 +5°C° 0 mm 3 m/s 760 mmHg 70%
    04:00 +5°C° 0 mm 3 m/s 759 mmHg 72%
    05:00 +5°C° 0 mm 3 m/s 759 mmHg 75%
    06:00 +5°C° 0.2 mm 3 m/s 758 mmHg 76%
    07:00 +5°C° 0.2 mm 4 m/s 758 mmHg 78%
    08:00 +5°C° 0.2 mm 4 m/s 758 mmHg 80%
    09:00 +5°C° 0.3 mm 4 m/s 757 mmHg 78%
    10:00 +6°C° 0.3 mm 4 m/s 757 mmHg 76%
    11:00 +6°C° 0.3 mm 4 m/s 757 mmHg 75%
    12:00 +8°C° 0 mm 4 m/s 756 mmHg 67%
    13:00 +10°C° 0 mm 4 m/s 756 mmHg 60%
    14:00 +11°C° 0 mm 4 m/s 755 mmHg 52%
    15:00 +10°C° 0.2 mm 5 m/s 755 mmHg 57%
    16:00 +9°C° 0.2 mm 6 m/s 756 mmHg 62%
    17:00 +8°C° 0.2 mm 7 m/s 756 mmHg 66%
    18:00 +5°C° 0.1 mm 8 m/s 757 mmHg 67%
    19:00 +1°C° 0.1 mm 10 m/s 758 mmHg 68%
    20:00 -2°C° 0.1 mm 11 m/s 759 mmHg 68%
    21:00 -3°C° 0 mm 11 m/s 761 mmHg 66%
    22:00 -4°C° 0 mm 11 m/s 762 mmHg 64%
    23:00 -4°C° 0 mm 10 m/s 763 mmHg 63%

    23 Fevereiro, Sábado

    Tempo Temperatura Precipitação Vento Pressão Humidade
    00:00 -5°C° 0 mm 10 m/s 763 mmHg 59%
    01:00 -7°C° 0 mm 10 m/s 764 mmHg 54%
    02:00 -8°C° 0 mm 9 m/s 765 mmHg 50%
    03:00 -8°C° 0 mm 9 m/s 765 mmHg 49%
    04:00 -8°C° 0 mm 9 m/s 766 mmHg 48%
    05:00 -8°C° 0 mm 9 m/s 766 mmHg 47%
    06:00 -7°C° 0 mm 8 m/s 766 mmHg 47%
    07:00 -7°C° 0 mm 7 m/s 767 mmHg 47%
    08:00 -7°C° 0 mm 7 m/s 767 mmHg 47%
    09:00 -6°C° 0 mm 7 m/s 767 mmHg 44%
    10:00 -4°C° 0 mm 7 m/s 767 mmHg 40%
    11:00 -4°C° 0 mm 8 m/s 768 mmHg 37%
    12:00 -4°C° 0 mm 8 m/s 767 mmHg 37%
    13:00 -4°C° 0 mm 8 m/s 767 mmHg 38%
    14:00 -4°C° 0 mm 8 m/s 767 mmHg 38%
    15:00 -4°C° 0 mm 8 m/s 767 mmHg 38%
    16:00 -3°C° 0 mm 7 m/s 767 mmHg 39%
    17:00 -4°C° 0 mm 7 m/s 767 mmHg 40%
    18:00 -4°C° 0 mm 6 m/s 767 mmHg 42%
    19:00 -5°C° 0 mm 6 m/s 768 mmHg 45%
    20:00 -5°C° 0 mm 5 m/s 768 mmHg 48%
    21:00 -6°C° 0 mm 5 m/s 768 mmHg 49%
    22:00 -6°C° 0 mm 5 m/s 768 mmHg 49%
    23:00 -6°C° 0 mm 5 m/s 768 mmHg 50%

    24 Fevereiro, Domingo

    Tempo Temperatura Precipitação Vento Pressão Humidade
    00:00 -6°C° 0 mm 5 m/s 768 mmHg 50%
    01:00 -6°C° 0 mm 5 m/s 768 mmHg 50%
    02:00 -7°C° 0 mm 5 m/s 768 mmHg 51%
    03:00 -7°C° 0 mm 5 m/s 768 mmHg 51%
    04:00 -7°C° 0 mm 5 m/s 768 mmHg 51%
    05:00 -8°C° 0 mm 6 m/s 767 mmHg 51%
    06:00 -8°C° 0 mm 6 m/s 768 mmHg 50%
    07:00 -8°C° 0 mm 6 m/s 768 mmHg 50%
    08:00 -8°C° 0 mm 7 m/s 768 mmHg 49%
    09:00 -8°C° 0 mm 7 m/s 768 mmHg 47%
    10:00 -7°C° 0 mm 7 m/s 768 mmHg 45%
    11:00 -6°C° 0 mm 8 m/s 768 mmHg 42%
    12:00 -6°C° 0 mm 8 m/s 768 mmHg 43%
    13:00 -5°C° 0 mm 8 m/s 768 mmHg 43%
    14:00 -5°C° 0 mm 8 m/s 767 mmHg 44%
    15:00 -5°C° 0 mm 8 m/s 767 mmHg 46%
    16:00 -6°C° 0 mm 7 m/s 767 mmHg 48%
    17:00 -6°C° 0 mm 7 m/s 767 mmHg 50%
    18:00 -6°C° 0 mm 7 m/s 767 mmHg 53%
    19:00 -6°C° 0 mm 6 m/s 768 mmHg 56%
    20:00 -6°C° 0 mm 6 m/s 768 mmHg 60%
    21:00 -6°C° 0 mm 6 m/s 768 mmHg 61%
    22:00 -8°C° 0 mm 6 m/s 768 mmHg 62%
    23:00 -8°C° 0 mm 6 m/s 768 mmHg 63%
    Mostrar mais